Weather History for Pierre, SD

Change the Weather History Date:

Friday, April 5, 2013

  Actual Average Record
Temperature  
Mean Temperature 47 °F 42 °F  
Max Temperature 65 °F 55 °F 85 °F (1991)
Min Temperature 29 °F 30 °F 14 °F (1968)
Degree Days  
Heating Degree Days 18 23  
Month to date heating degree days 122 117  
Since 1 July heating degree days 6647 6562  
Cooling Degree Days 0 0  
Month to date cooling degree days 0 0  
Year to date cooling degree days 0 0  
Moisture  
Dew Point 28 °F    
Average Humidity 55    
Maximum Humidity 78    
Minimum Humidity 31    
Precipitation  
Precipitation 0.00 in 0.04 in 1.47 in (1997)
Month to date precipitation T 0.23  
Year to date precipitation 1.81 2.47  
Snow  
Snow 0.00 in 0.20 in 8.00 in (1938)
Month to date snowfall 0.0 0.9  
Since 1 July snowfall 34.7 28.7  
Snow Depth 0.00 in    
Sea Level Pressure  
Sea Level Pressure 29.82 in    
Wind  
Wind Speed 18 mph (East)    
Max Wind Speed 29 mph    
Max Gust Speed 36 mph    
Visibility 10 miles    
Events      
T = Trace of Precipitation, MM = Missing Value Source: NWS Daily Summary

Daily Weather History Graph

Daily Weather History Graph

Search for Another Location

Airport:

Trip Planner

Search our weather history database for the weather conditions in past years. The results will help you decide how hot, cold, wet, or windy it might be!

Date:

Astronomy

Apr. 05, 2013 Rise Set
Actual Time 7:14 AM CDT 8:13 PM CDT
Civil Twilight 6:44 AM CDT 8:43 PM CDT
Nautical Twilight 6:09 AM CDT 9:18 PM CDT
Astronomical Twilight 5:32 AM CDT 9:56 PM CDT
Moon 4:33 AM CDT (4/5) 3:30 PM CDT (4/5)
Length of Visible Light 13h 58m
Length of Day
12h 59m
Waning Crescent, 23% of the Moon is Illuminated
Apr 5
Waning Crescent
Apr 10
New
Apr 18
First Quarter
Apr 25
Full
May 2
Last Quarter

Hourly Weather History & Observations

Time (CDT) Temp. Windchill Dew Point Humidity Pressure Visibility Wind Dir Wind Speed Gust Speed Precip Events Conditions
12:53 AM 34.0 °F 24.6 °F 26.1 °F 73% 30.14 in 10.0 mi East 13.8 mph - N/A   Mostly Cloudy
1:53 AM 34.0 °F 25.0 °F 26.1 °F 73% 30.14 in 10.0 mi East 12.7 mph - N/A   Overcast
2:53 AM 32.0 °F 23.0 °F 25.0 °F 75% 30.12 in 10.0 mi ESE 11.5 mph - N/A   Mostly Cloudy
3:53 AM 30.9 °F 19.4 °F 25.0 °F 79% 30.09 in 10.0 mi ESE 17.3 mph - N/A   Mostly Cloudy
4:53 AM 30.0 °F 17.9 °F 24.1 °F 79% 30.07 in 10.0 mi East 18.4 mph - N/A   Partly Cloudy
5:53 AM 28.9 °F 16.9 °F 21.9 °F 75% 30.04 in 10.0 mi East 17.3 mph - N/A   Clear
6:53 AM 28.9 °F 16.5 °F 21.0 °F 72% 30.00 in 10.0 mi ESE 18.4 mph - N/A   Clear
7:53 AM 30.0 °F 18.3 °F 19.9 °F 66% 29.99 in 10.0 mi ESE 17.3 mph - N/A   Clear
8:53 AM 30.9 °F 19.1 °F 19.9 °F 64% 29.97 in 10.0 mi ESE 18.4 mph 28.8 mph N/A   Clear
9:53 AM 34.0 °F 21.5 °F 21.0 °F 59% 29.93 in 10.0 mi ESE 24.2 mph 29.9 mph N/A   Clear
10:53 AM 39.0 °F 28.8 °F 24.1 °F 55% 29.89 in 10.0 mi ESE 21.9 mph 27.6 mph N/A   Clear
11:53 AM 41.0 °F 31.6 °F 26.1 °F 55% 29.86 in 10.0 mi ESE 20.7 mph - N/A   Clear
12:53 PM 46.9 °F - 28.0 °F 48% 29.80 in 10.0 mi ESE 21.9 mph 28.8 mph N/A   Clear
1:53 PM 53.1 °F - 30.9 °F 43% 29.75 in 10.0 mi East 17.3 mph - N/A   Clear
2:53 PM 57.0 °F - 32.0 °F 39% 29.69 in 10.0 mi ESE 18.4 mph 25.3 mph N/A   Clear
3:53 PM 61.0 °F - 33.1 °F 35% 29.64 in 10.0 mi East 15.0 mph 26.5 mph N/A   Clear
4:53 PM 63.0 °F - 33.1 °F 33% 29.60 in 10.0 mi East 17.3 mph - N/A   Clear
5:53 PM 64.9 °F - 33.1 °F 31% 29.58 in 10.0 mi ENE 17.3 mph - N/A   Clear
6:53 PM 62.1 °F - 33.1 °F 34% 29.56 in 10.0 mi NE 18.4 mph - N/A   Clear
7:53 PM 53.1 °F - 32.0 °F 45% 29.55 in 10.0 mi NE 21.9 mph 28.8 mph N/A   Clear
8:53 PM 50.0 °F - 32.0 °F 50% 29.53 in 10.0 mi NE 18.4 mph 25.3 mph N/A   Clear
9:53 PM 46.9 °F - 30.9 °F 54% 29.53 in 10.0 mi NE 19.6 mph 26.5 mph N/A   Clear
10:53 PM 45.0 °F 37.6 °F 30.9 °F 58% 29.55 in 10.0 mi NNE 17.3 mph - N/A   Mostly Cloudy
11:53 PM 44.1 °F 34.8 °F 30.9 °F 60% 29.58 in 10.0 mi NNW 25.3 mph 31.1 mph N/A   Overcast